DELTA 1 DEB

Satellite information

Favourite Embed

Satellite Type and Status

DEBRISIN ORBIT

Key statistics

Satellite DELTA 1 DEB at a glance.

Uptime

19501

Days in orbit

Revolutions

≈ 14.9

Per day

Orbit

SSO

Sun Synchronous Orbit

Inclination

98.8

Latest

Satellite identification and parameters

Extended collection of information and parameters for DELTA 1 DEB.

Object identification

Identified? True

Debris? True

Object name: DELTA 1 DEB

International designator: 1972-058BG

Object number (NORAD): 7890

Object ID (CCSDS): 7890

Country: UNITED STATES OF AMERICA (US)

Current information (Y/N): Y

RCS size: SMALL

Orbital parameters

Period: 96.915 minutes

Inclination: 98.8327 deg

SMA: 6989.076 km

Apoapsis: 682.148 km

Periapsis: 539.734 km

RAAN: 70.5956 deg

Eccentricy: 0.01018829

Argument of periapsis: 266.2644 deg

Mean anomaly: 92.6914 deg

Mean motion: 14.85843721 rev/day

Mean motion (dot): 0.00020192 rev/day2

B* drag term: 0.0021137158 1/REarth

Two-line elements (TLE)

Creation date: Dec. 12, 2025, 10:14 a.m.

Reference frame: TEME

Reference center: EARTH

Epoch: Dec. 12, 2025, 5:43 a.m. UTC

TLE line 0: 0 DELTA 1 DEB

TLE line 1: 1 07890U 72058BG 25346.23863159 .00020192 00000-0 21137-2 0 9993

TLE line 2: 2 07890 98.8327 70.5956 0101883 266.2644 92.6914 14.85843721612649

Live tracking on map

Real-time ground track for satellite DELTA 1 DEB.

In-orbit conjunctions

A list of the most updated potential collisions computed for object DELTA 1 DEB.

Target Orbit TCA Probability of collision Miss distance Type
STEP 2 LEO 2025-03-01 07:41:43 0.0002403837 148.0 (m) PAYLOAD
CZ-2C R/B SSO 2025-01-27 03:43:30 0.000130066 887.0 (m) ROCKET BODY
SL-8 R/B LEO 2024-10-09 22:39:46 0.0005616627 181.0 (m) ROCKET BODY
COSMOS 2251 DEB LEO 2024-08-11 00:55:45 0.0001112393 112.0 (m) DEBRIS

Associated space launch

Earth observation satellite

DELTA 1 DEB was lifted into orbit during the mission ‘Delta 0900 | Landsat 1’, on board a Delta 0900 space rocket.

The launch took place on July 23, 1972, 6:06 p.m. from Space Launch Complex 2W.

For more information about the launch, click the button.

Launch to space Delta 0900 | Landsat 1
Delta 0900 | Landsat 1

Agency: N/A

Status: Launch Successful

Launch date: July 23, 1972, 6:06 p.m. UTC

Rocket: Delta 0900

Launch pad: Space Launch Complex 2W

Location: Vandenberg SFB, CA, USA

...

Latest news about this satellite

There are no fresh news available about this satellite. Check back as we update our databases every day.


Newsletter sign-up

Weekly statistics, charts and insights to help you stay on top of the space industry.